This is the latest recevied weather packets stored in our database for station/object DL9GRB-13. If no packets are shown the sender has not sent any weather packets the latest 10 day(s).
| Time | Temp. | Humidity | Pressure | Rain* | Wind** | Luminosity | Snow |
|---|---|---|---|---|---|---|---|
| 1777626967 | 20° C | 44% | 1028.5 hPa | 0 mm | - | 617 W/m² | - |
| 1777626786 | 20° C | 44% | 1028.4 hPa | 0 mm | - | 610 W/m² | - |
| 1777626606 | 20° C | 45% | 1028.4 hPa | 0 mm | - | 605 W/m² | - |
| 1777626426 | 20° C | 44% | 1028.4 hPa | 0 mm | - | 596 W/m² | - |
| 1777626247 | 19.44° C | 45% | 1028.3 hPa | 0 mm | - | 589 W/m² | - |
| 1777626066 | 19.44° C | 45% | 1028.3 hPa | 0 mm | - | 580 W/m² | - |
| 1777625886 | 18.89° C | 46% | 1028.5 hPa | 0 mm | - | 572 W/m² | - |
| 1777625706 | 19.44° C | 47% | 1028.4 hPa | 0 mm | - | 564 W/m² | - |
| 1777625527 | 19.44° C | 47% | 1028.3 hPa | 0 mm | - | 556 W/m² | - |
| 1777625346 | 19.44° C | 48% | 1028.3 hPa | 0 mm | - | 546 W/m² | - |
| 1777625166 | 18.89° C | 48% | 1028.4 hPa | 0 mm | - | 539 W/m² | - |
| 1777624986 | 19.44° C | 48% | 1028.3 hPa | 0 mm | - | 531 W/m² | - |
| 1777624806 | 19.44° C | 49% | 1028.4 hPa | 0 mm | - | 530 W/m² | - |
| 1777624626 | 19.44° C | 48% | 1028.4 hPa | 0 mm | - | 522 W/m² | - |
| 1777624446 | 19.44° C | 48% | 1028.3 hPa | 0 mm | - | 516 W/m² | - |
| 1777624266 | 19.44° C | 48% | 1028.5 hPa | 0 mm | - | 510 W/m² | - |
| 1777624087 | 19.44° C | 49% | 1028.4 hPa | 0 mm | - | 505 W/m² | - |
| 1777623906 | 19.44° C | 50% | 1028.4 hPa | 0 mm | - | 500 W/m² | - |
| 1777623726 | 19.44° C | 51% | 1028.5 hPa | 0 mm | - | 495 W/m² | - |
| 1777623546 | 18.89° C | 51% | 1028.5 hPa | 0 mm | - | 487 W/m² | - |
| 1777623366 | 18.89° C | 52% | 1028.6 hPa | 0 mm | - | 480 W/m² | - |
| 1777623186 | 18.89° C | 51% | 1028.7 hPa | 0 mm | - | 472 W/m² | - |
| 1777623006 | 19.44° C | 46% | 1028.6 hPa | 0 mm | - | 462 W/m² | - |
| 1777622826 | 19.44° C | 48% | 1028.5 hPa | 0 mm | - | 448 W/m² | - |
| 1777622646 | 19.44° C | 48% | 1028.6 hPa | 0 mm | - | 426 W/m² | - |
* Rain latest hour (hover to see other rain measurements)
** Current wind speed in m/s (hover to see current wind gust speed)